This is the latest recevied weather packets stored in our database for station/object KC1HBM. If no packets are shown the sender has not sent any weather packets the latest 10 day(s).
| Time | Temp. | Humidity | Pressure | Rain* | Wind** | Luminosity | Snow |
|---|---|---|---|---|---|---|---|
| 1777924112 | 20.56° C | 39% | 1002.6 hPa | 0 mm | - | 64 W/m² | - |
| 1777923808 | 20.56° C | 40% | 1002.4 hPa | 0 mm | - | 43 W/m² | - |
| 1777923504 | 21.11° C | 40% | 1002.7 hPa | 0 mm | - | 39 W/m² | - |
| 1777923202 | 21.11° C | 39% | 1002.6 hPa | 0 mm | - | 42 W/m² | - |
| 1777922900 | 21.11° C | 40% | 1002.8 hPa | 0 mm | - | 38 W/m² | - |
| 1777922598 | 21.11° C | 40% | 1002.9 hPa | 0 mm | - | 35 W/m² | - |
| 1777922296 | 20.56° C | 41% | 1002.8 hPa | 0 mm | - | 57 W/m² | - |
| 1777921993 | 20.56° C | 41% | 1002.9 hPa | 0 mm | - | 96 W/m² | - |
| 1777921689 | 20° C | 42% | 1003 hPa | 0 mm | - | 131 W/m² | - |
| 1777921385 | 19.44° C | 42% | 1002.9 hPa | 0 mm | - | 69 W/m² | - |
| 1777921081 | 19.44° C | 41% | 1003 hPa | 0 mm | - | 62 W/m² | - |
| 1777920779 | 19.44° C | 41% | 1003.3 hPa | 0 mm | - | 56 W/m² | - |
| 1777920475 | 19.44° C | 42% | 1003.1 hPa | 0 mm | - | 71 W/m² | - |
| 1777920170 | 19.44° C | 41% | 1003 hPa | 0 mm | - | 51 W/m² | - |
| 1777919866 | 19.44° C | 41% | 1003.3 hPa | 0 mm | - | 42 W/m² | - |
| 1777919563 | 19.44° C | 40% | 1002.9 hPa | 0 mm | - | 33 W/m² | - |
| 1777919262 | 19.44° C | 39% | 1002.9 hPa | 0 mm | - | 38 W/m² | - |
| 1777918958 | 19.44° C | 40% | 1003 hPa | 0 mm | - | 53 W/m² | - |
| 1777918656 | 20° C | 39% | 1002.8 hPa | 0 mm | - | 66 W/m² | - |
| 1777918353 | 20° C | 39% | 1002.9 hPa | 0 mm | - | 166 W/m² | - |
| 1777918052 | 20° C | 38% | 1003 hPa | 0 mm | - | 108 W/m² | - |
| 1777917751 | 20° C | 39% | 1002.9 hPa | 0 mm | - | 94 W/m² | - |
| 1777917448 | 20° C | 38% | 1003 hPa | 0 mm | - | 91 W/m² | - |
| 1777917144 | 20° C | 37% | 1002.8 hPa | 0 mm | - | 102 W/m² | - |
| 1777916842 | 20° C | 38% | 1002.6 hPa | 0 mm | - | 109 W/m² | - |
* Rain latest hour (hover to see other rain measurements)
** Current wind speed in m/s (hover to see current wind gust speed)